GW0168 Weather Reports


Display with metric or nautical units.
time (UTC)temp
F
wind
direction
speed
MPH
gust
MPH
rain 1hr
in
rain 24hr
in
rain mn
in
humidity
%
barometer
mb
20260504044529 38 0 0.0 0.0 0.00 0.00 0.00 74 1003.8
20260504043030 37 0 0.0 0.0 0.00 0.00 0.00 73 1003.8
20260504041540 38 0 0.0 0.0 0.00 0.00 0.00 74 1003.8
20260504040032 38 0 0.0 0.0 0.00 0.00 0.00 73 1003.8
20260504034529 38 0 0.0 0.0 0.00 0.00 0.00 72 1003.8
20260504033029 39 0 0.0 0.0 0.00 0.00 0.00 72 1004.0
20260504031530 39 0 0.0 0.0 0.00 0.00 0.00 72 1004.0
20260504030029 39 0 0.0 0.0 0.00 0.00 0.00 72 1004.2
20260504024530 39 0 0.0 0.0 0.00 0.00 0.00 71 1004.3
20260504023031 40 0 0.0 0.0 0.00 0.00 0.00 71 1004.4
20260504021528 40 0 0.0 0.0 0.00 0.00 0.00 69 1004.6
20260504020036 40 0 0.0 0.0 0.00 0.00 0.00 68 1004.7
20260504014531 41 0 0.0 0.0 0.00 0.00 0.00 66 1004.8
20260504013040 41 0 0.0 0.0 0.00 0.00 0.00 61 1005.0
20260504011531 41 0 0.0 0.0 0.00 0.00 0.00 59 1004.9
20260504010030 43 0 0.0 0.0 0.00 0.00 0.00 47 1004.9
20260504004530 43 0 0.0 1.0 0.00 0.00 0.00 46 1004.7
20260504003028 44 0 0.0 0.0 0.00 0.00 0.00 45 1004.7
20260504001534 45 280 0.0 1.0 0.00 0.00 0.00 46 1004.6
20260504000030 45 0 0.0 0.0 0.00 0.00 0.00 48 1004.7
20260503234530 46 0 0.0 2.0 0.00 0.02 0.00 51 1004.6
20260503233027 47 0 0.0 0.0 0.00 0.02 0.00 45 1004.6
20260503231531 47 0 0.0 0.0 0.00 0.02 0.00 44 1004.6
20260503230038 47 0 0.0 0.0 0.00 0.02 0.00 51 1004.6
20260503224531 48 0 0.0 0.0 0.00 0.02 0.00 47 1004.7
20260503223030 48 0 0.0 0.0 0.00 0.02 0.00 43 1004.6
20260503221531 48 0 0.0 2.0 0.00 0.02 0.00 40 1004.6
20260503220032 48 264 0.0 3.0 0.00 0.02 0.00 40 1004.7
20260503214537 49 283 1.0 4.0 0.00 0.02 0.00 41 1004.7
20260503213028 49 44 0.0 5.0 0.00 0.02 0.00 40 1004.6
20260503211528 49 263 0.0 3.0 0.00 0.02 0.00 38 1004.7
20260503210029 49 296 0.0 6.0 0.00 0.02 0.00 43 1004.7
20260503204529 48 329 1.0 7.0 0.00 0.03 0.00 40 1004.7
20260503203034 49 5 2.0 5.0 0.00 0.03 0.00 40 1004.8
20260503201530 49 254 2.0 7.0 0.00 0.03 0.00 40 1004.9
20260503200030 48 265 1.0 6.0 0.00 0.03 0.00 40 1004.9
20260503194531 49 0 1.0 6.0 0.00 0.03 0.00 40 1005.0
20260503193042 49 307 1.0 7.0 0.00 0.03 0.00 39 1005.1
20260503191559 49 331 1.0 6.0 0.00 0.03 0.00 39 1005.2
20260503190034 47 327 2.0 8.0 0.00 0.03 0.00 40 1005.4
20260503184531 47 302 4.0 12.0 0.00 0.04 0.00 41 1005.5
20260503183031 46 303 3.0 9.0 0.00 0.04 0.00 40 1005.6
20260503181541 46 269 2.0 11.0 0.00 0.04 0.00 40 1006.0
20260503180030 47 234 0.0 6.0 0.00 0.04 0.00 44 1006.0
20260503174539 48 250 1.0 5.0 0.00 0.05 0.00 42 1006.1
20260503173032 46 298 2.0 12.0 0.00 0.05 0.00 41 1006.4
20260503171530 47 303 2.0 8.0 0.00 0.05 0.00 42 1006.5
20260503081535 30 0 0.0 0.0 0.00 0.06 0.00 94 1009.4
20260503071529 30 0 0.0 0.0 0.00 0.06 0.00 95 1009.3
20260503054535 31 0 0.0 0.0 0.00 0.06 0.00 94 1009.5
20260503053031 31 0 0.0 0.0 0.00 0.06 0.00 95 1009.6
20260503051527 31 0 0.0 0.0 0.00 0.06 0.00 95 1009.8